Tracking 19193 objects as of 22-Jun-2018
HD Live streaming from Space Station
objects crossing your sky now

FENGYUN 1C DEB

Track FENGYUN 1C DEB now!
10-day predictions


NORAD ID: 31547
Int'l Code: 1999-025BYN
Perigee: 817.8 km
Apogee: 916.7 km
Inclination: 99.0 °
Period: 102.1 minutes
Semi major axis: 7238 km
RCS: 0.0024 m2 (small)
Launch date: May 10, 1999
Source: People's Republic of China (PRC)
Launch site: Taiyaun Space Center, China (TSC)

Note: This is SATELLITE DEBRIS
aabbcc
Your satellite tracking list
Your tracking list is empty




NASA's NSSDC Master Catalog

Two Line Element Set (TLE):
1 31547U 99025BYN 18172.32312303 +.00000518 +00000-0 +31387-3 0  9990
2 31547 099.0325 130.7888 0068252 032.7324 327.8047 14.09784717254278
Source of the keplerian elements: AFSPC